Hourly Weather Abutkovo

Today, 16 January, Saturday

Time Temperature Precipitation Wind Pressure Humidity
00:00 -25°C° 0 mm 2 mps 739 mmHg 97%
01:00 -25°C° 0 mm 2 mps 739 mmHg 97%
02:00 -25°C° 0 mm 2 mps 738 mmHg 99%
03:00 -24°C° 0 mm 2 mps 738 mmHg 98%
04:00 -24°C° 0 mm 2 mps 738 mmHg 98%
05:00 -25°C° 0 mm 3 mps 738 mmHg 97%
06:00 -25°C° 0 mm 3 mps 738 mmHg 97%
07:00 -25°C° 0 mm 3 mps 738 mmHg 96%
08:00 -25°C° 0 mm 3 mps 738 mmHg 96%
09:00 -24°C° 0.1 mm 3 mps 738 mmHg 96%
10:00 -23°C° 0.1 mm 3 mps 737 mmHg 96%
11:00 -23°C° 0.1 mm 4 mps 737 mmHg 96%
12:00 -23°C° 0.3 mm 4 mps 737 mmHg 95%
13:00 -22°C° 0.3 mm 4 mps 737 mmHg 95%
14:00 -22°C° 0 mm 4 mps 737 mmHg 95%
15:00 -22°C° 0.4 mm 4 mps 737 mmHg 95%
16:00 -22°C° 0.4 mm 4 mps 737 mmHg 94%
17:00 -22°C° 0.4 mm 4 mps 737 mmHg 93%
18:00 -22°C° 0 mm 4 mps 737 mmHg 93%
19:00 -23°C° 0 mm 4 mps 737 mmHg 93%
20:00 -22°C° 0 mm 3 mps 738 mmHg 93%
21:00 -23°C° 0 mm 3 mps 738 mmHg 94%
22:00 -23°C° 0 mm 3 mps 738 mmHg 95%
23:00 -24°C° 0 mm 3 mps 738 mmHg 95%

Tomorrow, 17 January, Sunday

Time Temperature Precipitation Wind Pressure Humidity
00:00 -24°C° 0 mm 3 mps 739 mmHg 96%
01:00 -25°C° 0 mm 3 mps 739 mmHg 96%
02:00 -26°C° 0 mm 3 mps 739 mmHg 97%
03:00 -26°C° 0 mm 2 mps 739 mmHg 97%
04:00 -26°C° 0 mm 2 mps 740 mmHg 98%
05:00 -27°C° 0 mm 2 mps 740 mmHg 98%
06:00 -27°C° 0 mm 2 mps 740 mmHg 98%
07:00 -27°C° 0 mm 2 mps 740 mmHg 98%
08:00 -28°C° 0 mm 2 mps 741 mmHg 98%
09:00 -27°C° 0 mm 2 mps 741 mmHg 97%
10:00 -25°C° 0 mm 2 mps 742 mmHg 96%
11:00 -24°C° 0 mm 2 mps 742 mmHg 95%
12:00 -21°C° 0 mm 1 mps 742 mmHg 95%
13:00 -20°C° 0 mm 1 mps 742 mmHg 95%
14:00 -20°C° 0 mm 1 mps 743 mmHg 95%
15:00 -21°C° 0 mm 1 mps 743 mmHg 96%
16:00 -22°C° 0 mm 1 mps 743 mmHg 96%
17:00 -23°C° 0 mm 1 mps 743 mmHg 97%
18:00 -23°C° 0 mm 1 mps 743 mmHg 97%
19:00 -23°C° 0 mm 0 mps 743 mmHg 98%
20:00 -24°C° 0 mm 0 mps 744 mmHg 98%
21:00 -23°C° 0 mm 0 mps 744 mmHg 97%
22:00 -23°C° 0 mm 1 mps 744 mmHg 97%
23:00 -23°C° 0 mm 1 mps 744 mmHg 96%

Day after tomorrow, 18 January, Monday

Time Temperature Precipitation Wind Pressure Humidity
00:00 -23°C° 0 mm 1 mps 744 mmHg 97%
01:00 -23°C° 0 mm 1 mps 744 mmHg 97%
02:00 -23°C° 0 mm 1 mps 744 mmHg 98%
03:00 -22°C° 0 mm 1 mps 744 mmHg 98%
04:00 -22°C° 0 mm 1 mps 743 mmHg 98%
05:00 -22°C° 0 mm 1 mps 743 mmHg 98%
06:00 -25°C° 0 mm 2 mps 743 mmHg 98%
07:00 -25°C° 0 mm 2 mps 744 mmHg 98%
08:00 -25°C° 0 mm 2 mps 744 mmHg 98%
09:00 -20°C° 0 mm 1 mps 744 mmHg 97%
10:00 -18°C° 0 mm 1 mps 744 mmHg 96%
11:00 -17°C° 0 mm 1 mps 744 mmHg 95%
12:00 -16°C° 0 mm 1 mps 743 mmHg 95%
13:00 -16°C° 0 mm 1 mps 743 mmHg 95%
14:00 -15°C° 0 mm 1 mps 743 mmHg 95%
15:00 -15°C° 0 mm 1 mps 743 mmHg 96%
16:00 -16°C° 0 mm 1 mps 743 mmHg 96%
17:00 -18°C° 0 mm 2 mps 743 mmHg 96%
18:00 -16°C° 0 mm 1 mps 743 mmHg 97%
19:00 -17°C° 0 mm 1 mps 743 mmHg 97%
20:00 -17°C° 0 mm 1 mps 743 mmHg 97%
21:00 -16°C° 0 mm 1 mps 743 mmHg 96%
22:00 -16°C° 0 mm 1 mps 743 mmHg 96%
23:00 -15°C° 0 mm 1 mps 743 mmHg 96%

19 January, Tuesday

Time Temperature Precipitation Wind Pressure Humidity
00:00 -15°C° 0 mm 1 mps 743 mmHg 96%
01:00 -15°C° 0 mm 1 mps 743 mmHg 96%
02:00 -15°C° 0 mm 1 mps 743 mmHg 96%
03:00 -15°C° 0 mm 1 mps 743 mmHg 96%
04:00 -15°C° 0 mm 1 mps 743 mmHg 96%
05:00 -15°C° 0 mm 1 mps 742 mmHg 96%
06:00 -15°C° 0 mm 1 mps 743 mmHg 96%
07:00 -15°C° 0 mm 1 mps 743 mmHg 96%
08:00 -15°C° 0 mm 0 mps 743 mmHg 96%
09:00 -14°C° 0 mm 0 mps 743 mmHg 96%
10:00 -13°C° 0 mm 0 mps 743 mmHg 95%
11:00 -12°C° 0 mm 0 mps 743 mmHg 94%
12:00 -12°C° 0 mm 1 mps 743 mmHg 95%
13:00 -12°C° 0 mm 1 mps 743 mmHg 95%
14:00 -12°C° 0 mm 1 mps 743 mmHg 96%
15:00 -13°C° 0 mm 1 mps 743 mmHg 96%
16:00 -14°C° 0 mm 1 mps 743 mmHg 96%
17:00 -15°C° 0 mm 1 mps 743 mmHg 97%
18:00 -15°C° 0 mm 1 mps 743 mmHg 97%
19:00 -15°C° 0 mm 1 mps 743 mmHg 97%
20:00 -16°C° 0 mm 1 mps 744 mmHg 97%
21:00 -16°C° 0 mm 1 mps 744 mmHg 97%
22:00 -16°C° 0 mm 1 mps 744 mmHg 97%
23:00 -16°C° 0 mm 1 mps 744 mmHg 97%

20 January, Wednesday

Time Temperature Precipitation Wind Pressure Humidity
00:00 -16°C° 0 mm 1 mps 744 mmHg 97%
01:00 -16°C° 0 mm 1 mps 744 mmHg 97%
02:00 -17°C° 0 mm 1 mps 744 mmHg 96%
03:00 -19°C° 0 mm 2 mps 744 mmHg 97%
04:00 -19°C° 0 mm 2 mps 745 mmHg 97%
05:00 -19°C° 0 mm 2 mps 745 mmHg 97%
06:00 -19°C° 0 mm 2 mps 745 mmHg 97%
07:00 -19°C° 0 mm 2 mps 745 mmHg 97%
08:00 -20°C° 0 mm 2 mps 745 mmHg 96%
09:00 -18°C° 0 mm 2 mps 745 mmHg 96%
10:00 -17°C° 0 mm 2 mps 745 mmHg 95%
11:00 -16°C° 0 mm 2 mps 745 mmHg 94%
12:00 -15°C° 0 mm 2 mps 745 mmHg 94%
13:00 -15°C° 0 mm 2 mps 745 mmHg 94%
14:00 -15°C° 0 mm 2 mps 745 mmHg 93%
15:00 -15°C° 0 mm 2 mps 745 mmHg 94%
16:00 -17°C° 0 mm 3 mps 745 mmHg 94%
17:00 -18°C° 0 mm 3 mps 745 mmHg 95%
18:00 -18°C° 0 mm 3 mps 745 mmHg 94%
19:00 -18°C° 0 mm 3 mps 745 mmHg 94%
20:00 -18°C° 0 mm 3 mps 744 mmHg 93%
21:00 -19°C° 0 mm 4 mps 744 mmHg 92%
22:00 -19°C° 0 mm 4 mps 744 mmHg 91%
23:00 -18°C° 0 mm 4 mps 744 mmHg 90%

21 January, Thursday

Time Temperature Precipitation Wind Pressure Humidity
00:00 -18°C° 0 mm 4 mps 743 mmHg 90%
01:00 -18°C° 0 mm 5 mps 743 mmHg 90%
02:00 -18°C° 0 mm 5 mps 742 mmHg 90%
03:00 -17°C° 0 mm 5 mps 742 mmHg 90%
04:00 -16°C° 0 mm 6 mps 741 mmHg 91%
05:00 -15°C° 0 mm 6 mps 740 mmHg 92%
06:00 -15°C° 0.2 mm 6 mps 740 mmHg 92%
07:00 -14°C° 0.2 mm 6 mps 739 mmHg 92%
08:00 -12°C° 0.2 mm 6 mps 739 mmHg 92%
09:00 -12°C° 0.1 mm 6 mps 739 mmHg 92%
10:00 -11°C° 0.1 mm 6 mps 739 mmHg 92%
11:00 -10°C° 0.1 mm 6 mps 738 mmHg 92%
12:00 -10°C° 0.1 mm 6 mps 738 mmHg 92%
13:00 -9°C° 0.1 mm 6 mps 738 mmHg 92%
14:00 -9°C° 0.1 mm 6 mps 737 mmHg 92%
15:00 -7°C° 0.1 mm 5 mps 737 mmHg 93%
16:00 -7°C° 0.1 mm 5 mps 737 mmHg 93%
17:00 -6°C° 0.1 mm 5 mps 737 mmHg 94%
18:00 -5°C° 0.1 mm 5 mps 737 mmHg 94%
19:00 -4°C° 0.1 mm 5 mps 737 mmHg 94%
20:00 -4°C° 0.1 mm 5 mps 736 mmHg 95%
21:00 -2°C° 0.1 mm 5 mps 736 mmHg 94%
22:00 -2°C° 0.1 mm 5 mps 736 mmHg 93%
23:00 -3°C° 0.1 mm 6 mps 736 mmHg 93%
Show more